Location: Detroit
(42.3310°N, 83.0460°W)
Time: 11:26:09
(UTC-05:00)

Vanguard 1 - Visible Passes

Search period start: 29 January 2023 00:00
Search period end: 08 February 2023 00:00
Orbit: 649 x 3831 km, 34.2° (Epoch: 28 January)

Date Brightness Start Highest point End Pass type
(mag) Time Alt. Az. Time Alt. Az. Time Alt. Az.
29 Jan 12.6 04:30:27 10° S 04:35:27 18° SE 04:42:20 10° E visible
29 Jan 12.4 06:45:55 10° SW 06:54:52 50° SSE 07:11:01 10° E visible
30 Jan 12.4 04:50:21 14° S 04:55:18 24° SE 05:04:23 10° E visible
30 Jan 12.3 07:06:05 10° WSW 07:15:20 56° SSE 07:32:17 10° E visible
31 Jan 12.1 05:10:11 16° SSW 05:15:18 31° SE 05:25:58 10° E visible
01 Feb 12.0 05:29:58 17° SSW 05:35:26 38° SSE 05:47:19 10° E visible
02 Feb 12.6 03:37:00 13° SE 03:37:00 13° SE 03:40:32 10° ESE visible
02 Feb 11.9 05:49:42 16° SW 05:55:43 45° SSE 06:08:34 10° E visible
03 Feb 12.2 03:56:42 19° SE 03:56:45 19° SE 04:02:52 10° E visible
03 Feb 11.8 06:09:24 14° SW 06:16:07 51° SSE 06:29:45 10° E visible
04 Feb 11.8 04:16:21 26° SSE 04:16:46 26° SE 04:24:27 10° E visible
04 Feb 11.8 06:29:03 10° WSW 06:36:38 55° S 06:50:53 10° E visible
05 Feb 11.5 04:35:58 32° SSE 04:36:53 33° SSE 04:45:44 10° E visible
05 Feb 11.8 06:49:17 10° WSW 06:57:13 57° S 07:11:58 10° ESE visible
06 Feb 11.2 04:55:34 36° S 04:57:08 40° SSE 05:06:53 10° E visible
06 Feb 11.9 07:09:41 10° WSW 07:17:50 56° S 07:33:00 10° ESE visible
07 Feb 11.1 05:15:08 35° SSW 05:17:30 45° SSE 05:27:57 10° E visible
